Regional Weather Roundup
Issued by NWS Jackson, KY

Home | Current Version | Previous Version | Graphics & Text | Print | Product List | Glossary On
Versions: 1 2 3 4 5 6 7 8 9 10 11 12 13 14 15 16 17 18 19 20 21 22 23 24 25 26 27 28 29 30 31 32 33 34 35 36 37 38 39 40 41 42 43 44 45 46 47 48 49 50
000
ASUS43 KJKL 241305
RWRJKL

EAST KENTUCKY HOURLY WEATHER ROUNDUP
NATIONAL WEATHER SERVICE JACKSON KY
900 AM EDT FRI OCT 24 2014

NOTE: "FAIR" INDICATES FEW OR NO CLOUDS BELOW 12,000 FEET WITH
NO SIGNIFICANT WEATHER AND/OR OBSTRUCTIONS TO VISIBILITY.

* THESE REPORTS ARE NOT UNDER NWS QUALITY CONTROL AND MAY NOT
  REPORT WEATHER SUCH AS PRECIPITATION AND FOG.

KYZ079-080-083-085-087-088-110-112-115-119-120-241400
...EASTERN KENTUCKY...

CITY           SKY/WX    TMP DP  RH WIND       PRES   REMARKS
JACKSON        CLOUDY    43  40  89 CALM      30.14R
LONDON         CLOUDY    45  41  86 CALM      30.13S
SOMERSET*      MOSUNNY   41  41 100 CALM      30.15R
MONTICELLO*    MOSUNNY   38  38 100 CALM      30.15R FOG
WILLIAMSBURG*  SUNNY     41  41 100 CALM      30.13
MIDDLESBORO*   FOG       42  42 100 CALM      30.15R VSB 1/2
HARLAN APT*    CLOUDY    41  41 100 CALM      30.14R
BLACK MTN*       N/A     46  30  53 N5          N/A
PIKEVILLE APT* FOG       41  39  93 CALM      30.14R VSB 0
BIG SANDY*     CLOUDY    42  42  99 CALM      30.14R
MOREHEAD APT*  CLOUDY    41  41 100 CALM      30.16R FOG
$$

KYZ035-036-041-042-044-050-067-078-099-241400
...CENTRAL KENTUCKY...

CITY           SKY/WX    TMP DP  RH WIND       PRES   REMARKS
MT STERLING*   PTSUNNY   41  41 100 CALM      30.15S
FLEMING/MASON* CLOUDY    42  41  97 CALM      30.15R FOG
DANVILLE*      PTSUNNY   43  41  93 CALM      30.14S
RICHMOND*      MOCLDY    41  39  93 CALM      30.13S
LEXINGTON      MOSUNNY   43  39  86 CALM      30.13S FOG
FRANKFORT      SUNNY     39  36  89 CALM      30.13R
$$

KYZ091>093-OHZ055-061-077-WVZ005-015-034-035-042-241400
...SOUTHERN OHIO/WEST VIRGINIA...

CITY           SKY/WX    TMP DP  RH WIND       PRES   REMARKS
COVINGTON      MOSUNNY   40  38  93 CALM      30.13R
COLUMBUS       PTSUNNY   42  39  89 CALM      30.12S
DAYTON         MOSUNNY   42  40  92 S3        30.13R FOG
WILMINGTON     PTSUNNY   42  39  89 CALM      30.13R FOG
HUNTINGTON     CLOUDY    40  40 100 CALM      30.13R FOG
CHARLESTON     FOG       41  40  96 CALM      30.14R VSB 1/2
PINEVILLE*     FOG       41  41 100 MISG      30.19S VSB<1/4
BECKLEY        PTSUNNY   41  38  89 CALM      30.11R FOG
BLUEFIELD      PTSUNNY   43  39  86 W6        30.12R
$$

VAZ002-007-008-TNZ017-027-036-066-071-241400
...SOUTHWEST VIRGINIA/EAST TENNESSEE...

CITY           SKY/WX    TMP DP  RH WIND       PRES   REMARKS
WISE*          CLOUDY    45  41  87 CALM      30.13R
JONESVILLE*    CLOUDY    39  39 100 CALM      30.16R FOG
ABINGDON*      PTSUNNY   42  42  98 CALM      30.12R FOG
BRISTOL        FOG       40  39  97 CALM      30.14R VSB 1
KNOXVILLE      PTSUNNY   44  41  89 NE5       30.11S
OAK RIDGE      PTSUNNY   47  45  93 CALM      30.13S
CROSSVILLE     SUNNY     46  42  86 E5        30.11S
NASHVILLE      MOSUNNY   48  45  89 W5        30.15R
$$

...KEY TO REMARKS...
VSB - VISIBILITY IN MILES
WCI - WIND CHILL INDEX
HX  - HEAT INDEX

$$



USA.gov is the U.S. government's official web portal to all federal, state and local government web resources and services.